Starlink 30888

operational
NORAD ID: 58370 Int'l Des: 2023-177 Owner: SPXS Country: US Constellation: starlink
LEOCIRCULAR

关于 Starlink 30888

正在加载描述...

实时位置

正在加载3D地球...

即将过境

高度历史

Altitude vs Time

uPlot chart will show altitude changes over time

两行轨道根数

1 58370U 23177V 25303.48362151 .00000007 00000-0 15598-4 0 9995
2 58370 43.0051 339.5724 0001335 266.6537 93.4153 15.02535614108633
Epoch: Oct 30, 2025 • Age: 19 hours

当前状态

高度 564.2 km
速度 7.58 km/s
星下点 -23.45°S, 51.45°E
发射日期 Nov 18, 2023
运行时间 1.9 years
类型 internet

技术详情

分类 Payload
质量 730.00 kg
干质量 700.00 kg
总质量 730.00 kg
长度 0.30 m
直径 4.10 m
跨度 29.00 m
形状 Box + pan
制造商 SPXS
平台类型 Starlink V2M
阶段状态 In Orbit
所有者/国家 SPXS/US

大型星座

Loading constellations...